Date,TemperatureHighF,TemperatureAvgF,TemperatureLowF,DewpointHighF,DewpointAvgF,DewpointLowF,HumidityHigh,HumidityAvg,HumidityLow,PressureMaxIn,PressureMinIn,WindSpeedMaxMPH,WindSpeedAvgMPH,GustSpeedMaxMPH,PrecipitationSumIn
2013-3-1,33.2,31.1,28.0,31.4,27.1,23.6,91,83,76,29.97,29.76,12,5,15,0.00
2013-3-2,28.6,26.7,23.9,23.9,21.8,19.5,85,79,74,29.98,29.90,11,5,14,0.00
2013-3-3,27.7,25.3,22.5,22.4,20.6,18.4,87,80,68,29.94,29.88,10,5,15,0.00
2013-3-4,32.7,27.7,23.8,24.6,21.4,18.2,83,75,65,30.08,29.92,13,6,21,0.00
2013-3-5,34.3,28.8,23.5,27.1,23.3,18.9,84,78,67,30.11,29.98,12,4,17,0.00
2013-3-6,45.3,34.7,25.8,37.5,30.6,23.3,88,83,71,30.16,29.97,12,4,16,0.00
2013-3-7,43.2,36.0,31.8,36.9,31.8,28.9,88,83,72,30.30,30.16,9,3,10,0.00
2013-3-8,49.9,36.2,26.5,38.5,29.7,23.4,90,76,54,30.42,30.30,13,3,19,0.03
2013-3-9,51.0,36.2,24.7,40.6,30.7,22.1,90,79,48,30.43,30.19,8,2,11,0.00
2013-3-10,68.3,48.5,33.6,43.0,34.4,29.1,82,58,31,30.19,29.95,11,3,17,0.00
2013-3-11,65.5,54.5,46.1,44.1,36.8,33.0,85,49,31,29.96,29.64,14,4,21,0.09
2013-3-12,47.7,40.4,35.4,44.4,34.6,29.5,86,77,69,29.91,29.70,16,9,23,0.02
2013-3-13,41.2,32.7,23.9,34.2,27.6,16.6,88,79,67,29.98,29.83,18,8,29,0.07
2013-3-14,36.5,28.0,21.4,24.2,17.3,14.0,79,62,43,30.09,29.98,19,9,30,0.00
2013-3-15,40.3,32.8,25.6,32.7,26.0,16.8,87,74,60,30.06,29.74,18,7,27,0.06
2013-3-16,31.7,27.6,18.7,24.8,20.5,15.5,86,72,65,30.00,29.87,11,5,14,0.00
2013-3-17,37.5,26.9,17.9,29.0,19.1,12.4,86,71,44,30.35,29.99,12,4,16,0.01
2013-3-18,36.2,27.8,17.8,31.9,20.2,12.9,87,71,48,30.34,29.67,15,6,26,0.00
2013-3-19,37.9,33.4,26.1,34.3,27.5,20.7,88,76,58,29.85,29.64,21,9,29,0.09
2013-3-20,37.2,29.3,24.8,28.3,21.8,17.4,85,71,59,29.85,29.81,15,8,23,0.02
2013-3-21,36.7,28.0,21.0,27.0,21.0,16.1,87,73,47,29.83,29.72,15,7,23,0.00
2013-3-22,35.7,30.9,26.5,27.7,25.5,22.4,87,78,67,29.95,29.75,12,7,20,0.13
2013-3-23,42.7,34.4,27.3,30.9,26.7,23.0,84,71,57,30.03,29.93,11,5,18,0.07
2013-3-24,44.7,31.5,21.0,33.4,24.8,17.8,90,74,52,30.04,29.75,10,2,15,0.00
2013-3-25,47.5,36.8,30.5,37.7,29.9,26.4,86,74,59,29.76,29.64,14,6,21,0.00
2013-3-26,54.4,41.5,31.5,39.7,31.7,27.5,86,67,42,29.97,29.76,11,4,15,0.00
2013-3-27,51.5,38.3,33.2,37.9,31.9,26.9,89,75,56,30.08,29.94,13,6,19,0.03
2013-3-28,50.8,39.7,33.7,41.8,34.0,30.6,90,79,50,30.22,30.07,10,4,13,0.12
2013-3-29,57.7,43.4,30.5,39.9,34.0,26.8,86,69,40,30.22,30.14,11,4,17,0.00
2013-3-30,57.2,40.1,24.8,38.1,29.3,22.0,91,65,38,30.23,30.03,13,3,17,0.00
2013-3-31,61.4,48.4,32.3,42.9,33.7,25.3,86,56,34,30.03,29.61,16,6,25,0.02